(293153) = 2002 CS284 = 2006 YB12

Discovered at Crni Vrh on 2006-12-22 by Crni Vrh.

Orbit

Orbit type: Main Belt

Note: WebGL enabled browser required.

epoch2023-09-13.0
epoch JD2460200.5
perihelion date2018-03-24.67105
perihelion JD2458202.17105
argument of perihelion (°)95.10185
ascending node (°)338.13303
inclination (°)15.37140
eccentricity0.2247952
perihelion distance (AU)2.4795882
Tisserand w.r.t. Jupiter3.1
ΔV w.r.t. Earth (km/sec)10.9
semimajor axis (AU)3.1986234
mean anomaly (°)344.29139
mean daily motion (°/day)0.17228970
aphelion distance (AU)3.918
period (years)5.72
P-vector [x]0.27517821
P-vector [y]0.74312350
P-vector [z]0.60995444
Q-vector [x]-0.95631049
Q-vector [y]0.27673175
Q-vector [z]0.09428564
absolute magnitude15.34
phase slope0.15
uncertainty0
referenceMPEC 2024-A88
observations used449
oppositions13
arc length (days)8504
first opposition used2000
last opposition used2024
residual rms (arc-secs)0.70
perturbers coarse indicatorM-v
perturbers precise indicator003Ek
first observation date used2000-09-26.0
last observation date used2024-01-08.0
computer nameMPCLINUX
JD of orbit computation2456789.411514
perihelion JD uncertainty (days)1.6355E-04
argument of perihelion uncertainty (°)4.4801E-05
ascending node uncertainty (°)2.5274E-05
inclination uncertainty (°)1.0205E-05
eccentricity uncertainty 5.8554E-08
perihelion distance uncertainty (AU)1.8076E-07
Minimum Orbit Intersection Distances (in AU)
for orbit epoch: 2460200.5, reference: E2024-A88
Mercury2.17993
Venus1.79488
Earth1.55036
Mars1.01402
Jupiter1.66548
Saturn6.3143
Uranus15.1117
Neptune26.6909

Observations

462 total observations over interval: 2000 09 26.32795 – 2024 01 08.436917
These data are available for download (format description).

Date (UT) J2000 RA J2000 Dec Magn Location Ref
2000 09 26.32795 02 21 47.13 +32 55 58.5   704 – Lincoln Laboratory ETS, New Mexico MPS 407569
2000 09 26.34264 02 21 46.67 +32 56 05.2   704 – Lincoln Laboratory ETS, New Mexico MPS 407569
2000 09 26.37255 02 21 45.75 +32 56 16.9   704 – Lincoln Laboratory ETS, New Mexico MPS 407569
2000 11 06.19205 01 45 40.29 +34 33 09.7   704 – Lincoln Laboratory ETS, New Mexico MPS 407569
2000 11 06.21950 01 45 38.62 +34 33 04.9   704 – Lincoln Laboratory ETS, New Mexico MPS 407569
2000 11 06.23325 01 45 37.72 +34 33 02.2   704 – Lincoln Laboratory ETS, New Mexico MPS 407569
2000 11 06.24777 01 45 36.84 +34 32 59.7   704 – Lincoln Laboratory ETS, New Mexico MPS 407569
2000 11 16.07021 01 36 59.10 +33 58 08.3 18.5 R 699 – Lowell Observatory-LONEOS MPS 214519
2000 11 16.08590 01 36 58.39 +33 58 05.0   699 – Lowell Observatory-LONEOS MPS 214519
2000 11 16.10151 01 36 57.61 +33 58 01.1   699 – Lowell Observatory-LONEOS MPS 214519
2000 11 16.11737 01 36 56.87 +33 57 57.1   699 – Lowell Observatory-LONEOS MPS 214519
2000 12 01.14251 01 28 37.51 +32 44 18.5   704 – Lincoln Laboratory ETS, New Mexico MPS 407569
2000 12 01.17178 01 28 36.89 +32 44 08.4   704 – Lincoln Laboratory ETS, New Mexico MPS 407569
2000 12 01.18652 01 28 36.65 +32 44 04.6   704 – Lincoln Laboratory ETS, New Mexico MPS 407569
2000 12 01.20127 01 28 36.34 +32 44 00.2   704 – Lincoln Laboratory ETS, New Mexico MPS 407569
2002 02 09.33884 11 14 46.32 +04 35 22.0 20.1 V 291 – LPL/Spacewatch II MPS 54790
2002 02 09.35931 11 14 45.36 +04 35 21.6 20.2 V 291 – LPL/Spacewatch II MPS 54790
2002 02 09.37948 11 14 44.43 +04 35 21.4 20.3 V 291 – LPL/Spacewatch II MPS 54790
2002 02 11.37879 11 13 12.07 +04 35 04.8 19.3   704 – Lincoln Laboratory ETS, New Mexico MPS 54790
2002 02 11.39315 11 13 11.38 +04 35 04.7 19.6   704 – Lincoln Laboratory ETS, New Mexico MPS 54790
2002 02 11.40771 11 13 10.69 +04 35 05.1 20.1   704 – Lincoln Laboratory ETS, New Mexico MPS 54790
2002 02 11.42213 11 13 10.00 +04 35 04.5 19.9   704 – Lincoln Laboratory ETS, New Mexico MPS 54790
2002 02 11.43644 11 13 09.26 +04 35 04.2 19.9   704 – Lincoln Laboratory ETS, New Mexico MPS 54790
2002 03 13.25810 10 46 23.32 +04 54 34.8 19.6   704 – Lincoln Laboratory ETS, New Mexico MPS 213854
2002 03 13.29957 10 46 21.07 +04 54 36.8 19.8   704 – Lincoln Laboratory ETS, New Mexico MPS 213854
2002 03 13.31345 10 46 20.30 +04 54 37.1 19.7   704 – Lincoln Laboratory ETS, New Mexico MPS 213854
2005 08 04.40772 22 33 58.50 -13 17 55.6 20.7   644 – Palomar Mountain/NEAT MPS 214519
2005 08 04.42997 22 33 57.53 -13 17 56.9 20.0   644 – Palomar Mountain/NEAT MPS 214519
2005 08 04.44048 22 33 57.09 -13 17 57.2 20.1   644 – Palomar Mountain/NEAT MPS 214519
2005 08 27.29584 22 14 54.43 -13 40 49.9 19.6   644 – Palomar Mountain/NEAT MPS 214519
2005 08 27.32902 22 14 52.61 -13 40 51.6 19.6   644 – Palomar Mountain/NEAT MPS 214519
2005 08 27.35648 22 14 51.07 -13 40 53.1 19.8   644 – Palomar Mountain/NEAT MPS 214519
2006 12 10.24384 05 33 17.46 +47 47 36.5 18.7   704 – Lincoln Laboratory ETS, New Mexico MPS 192696
2006 12 10.25579 05 33 16.51 +47 47 33.9 18.8   704 – Lincoln Laboratory ETS, New Mexico MPS 192696
2006 12 10.26773 05 33 15.73 +47 47 34.8 18.9   704 – Lincoln Laboratory ETS, New Mexico MPS 192696
2006 12 10.27976 05 33 14.85 +47 47 33.4 18.8   704 – Lincoln Laboratory ETS, New Mexico MPS 192696
2006 12 10.29170 05 33 14.06 +47 47 33.2 18.9   704 – Lincoln Laboratory ETS, New Mexico MPS 192696
2006 12 20.86361 05 20 53.64 +47 18 47.6 18.4 R 106 – Crni Vrh MPS 192696
2006 12 20.86938 05 20 53.18 +47 18 45.6 18.7 R 106 – Crni Vrh MPS 192696
2006 12 20.87514 05 20 52.82 +47 18 44.1 18.5 R 106 – Crni Vrh MPS 192696
2006 12 20.88091 05 20 52.41 +47 18 43.3 18.7 R 106 – Crni Vrh MPS 192696
2006 12 22.95167 05 18 33.50 +47 09 09.7 17.6 R 106 – Crni Vrh MPS 192696
2006 12 23.91468 05 17 30.51 +47 04 18.1 18.2 R 106 – Crni Vrh MPS 192696
2006 12 23.92864 05 17 29.59 +47 04 15.0 17.6 R 106 – Crni Vrh MPS 192696
2011 08 24.34078 23 55 30.40 +04 59 00.1 19.6   704 – Lincoln Laboratory ETS, New Mexico MPS 388644
2011 08 24.35377 23 55 29.84 +04 59 00.9 19.8   704 – Lincoln Laboratory ETS, New Mexico MPS 388644
2011 08 24.36684 23 55 29.36 +04 59 02.2 20.1   704 – Lincoln Laboratory ETS, New Mexico MPS 388644
2011 08 24.37983 23 55 28.91 +04 59 06.0 19.8   704 – Lincoln Laboratory ETS, New Mexico MPS 388644
2011 08 24.39282 23 55 28.39 +04 59 06.1 19.7   704 – Lincoln Laboratory ETS, New Mexico MPS 388644
2011 08 31.54897 23 50 25.530 +05 09 47.27 20.2 g F51 – Pan-STARRS 1, Haleakala MPS 390596
2011 08 31.56022 23 50 24.999 +05 09 47.85 20.2 g F51 – Pan-STARRS 1, Haleakala MPS 390596
2011 08 31.57194 23 50 24.438 +05 09 48.72 19.7 r F51 – Pan-STARRS 1, Haleakala MPS 390596
2011 08 31.58235 23 50 23.948 +05 09 49.42 19.8 r F51 – Pan-STARRS 1, Haleakala MPS 390596
2011 09 18.25735 23 35 06.21 +05 13 26.6 19.4 V 703 – Catalina Sky Survey MPS 392539
2011 09 18.26508 23 35 05.85 +05 13 26.1 18.9 V 703 – Catalina Sky Survey MPS 392539
2011 09 18.27278 23 35 05.46 +05 13 25.4 19.6 V 703 – Catalina Sky Survey MPS 392539
2011 09 18.28052 23 35 04.95 +05 13 26.0 19.2 V 703 – Catalina Sky Survey MPS 392539
2011 09 19.31873 23 34 07.32 +05 12 46.7 19.1 V G96 – Mt. Lemmon Survey MPS 392539
2011 09 19.32574 23 34 06.88 +05 12 46.5 19.2 V G96 – Mt. Lemmon Survey MPS 392539
2011 09 19.33279 23 34 06.52 +05 12 46.3 19.2 V G96 – Mt. Lemmon Survey MPS 392539
2011 09 19.33982 23 34 06.09 +05 12 45.9 19.2 V G96 – Mt. Lemmon Survey MPS 392539
2011 09 24.29897 23 29 32.06 +05 08 48.4 19.0   704 – Lincoln Laboratory ETS, New Mexico MPS 394162
2011 09 24.31384 23 29 31.26 +05 08 47.4 19.1   704 – Lincoln Laboratory ETS, New Mexico MPS 394162
2011 09 24.33012 23 29 30.34 +05 08 47.1 19.4   704 – Lincoln Laboratory ETS, New Mexico MPS 394162
2011 09 24.34329 23 29 29.65 +05 08 45.6 19.3   704 – Lincoln Laboratory ETS, New Mexico MPS 394162
2011 09 24.35629 23 29 28.79 +05 08 45.2 19.5   704 – Lincoln Laboratory ETS, New Mexico MPS 394162
2011 09 26.28338 23 27 43.92 +05 06 51.0 19.2 V 703 – Catalina Sky Survey MPS 394162
2011 09 26.29057 23 27 43.52 +05 06 50.9 19.3 V 703 – Catalina Sky Survey MPS 394162
2011 09 26.29771 23 27 43.09 +05 06 50.0 19.4 V 703 – Catalina Sky Survey MPS 394162
2011 09 26.30497 23 27 42.76 +05 06 49.2 19.2 V 703 – Catalina Sky Survey MPS 394162
2011 10 01.21954 23 23 22.41 +05 01 21.7 19.4 V G96 – Mt. Lemmon Survey MPS 394971
2011 10 01.22659 23 23 22.02 +05 01 21.0 19.5 V G96 – Mt. Lemmon Survey MPS 394971
2011 10 01.23359 23 23 21.66 +05 01 20.6 19.3 V G96 – Mt. Lemmon Survey MPS 394971
2011 10 01.24061 23 23 21.26 +05 01 20.1 19.3 V G96 – Mt. Lemmon Survey MPS 394971
2011 10 22.20088 23 08 54.86 +04 39 20.5 19.2   704 – Lincoln Laboratory ETS, New Mexico MPS 398057
2011 10 22.22522 23 08 54.10 +04 39 19.5 20.0   704 – Lincoln Laboratory ETS, New Mexico MPS 398057
2011 10 22.23784 23 08 53.75 +04 39 19.1 19.8   704 – Lincoln Laboratory ETS, New Mexico MPS 398057
2011 10 22.24979 23 08 53.37 +04 39 18.9 19.5   704 – Lincoln Laboratory ETS, New Mexico MPS 398057
2011 10 30.12860 23 05 55.24 +04 36 35.6 19.6 V G96 – Mt. Lemmon Survey MPS 399884
2011 10 30.13490 23 05 55.14 +04 36 35.5 19.7 V G96 – Mt. Lemmon Survey MPS 399884
2011 10 30.14116 23 05 55.03 +04 36 35.5 19.7 V G96 – Mt. Lemmon Survey MPS 399884
2011 10 30.14750 23 05 54.92 +04 36 35.6 19.8 V G96 – Mt. Lemmon Survey MPS 399884
2011 10 30.15381 23 05 54.81 +04 36 35.7 19.8 V G96 – Mt. Lemmon Survey MPS 399884
2012 12 21.17622 09 16 31.26 +31 38 08.6 18.9 R 461 – University of Szeged, Piszkesteto Stn. (Konkol MPS 448477
2012 12 21.18277 09 16 31.12 +31 38 08.8 18.5 R 461 – University of Szeged, Piszkesteto Stn. (Konkol MPS 448477
2012 12 21.18931 09 16 30.93 +31 38 09.8 19.0 R 461 – University of Szeged, Piszkesteto Stn. (Konkol MPS 448477
2013 01 03.46273 09 08 50.24 +31 54 40.4 18.5 V 703 – Catalina Sky Survey MPS 449538
2013 01 03.47130 09 08 49.88 +31 54 39.0 19.1 V 703 – Catalina Sky Survey MPS 449538
2013 01 03.47982 09 08 49.41 +31 54 40.7 19.6 V 703 – Catalina Sky Survey MPS 449538
2013 01 03.48837 09 08 48.98 +31 54 42.0 19.0 V 703 – Catalina Sky Survey MPS 449538
